User: anonymous   Login
Location: Unspecified
(0.0000°N, 0.0000°E)
Time: 07:57:06
(UTC+00:00)
Language:

GALILEO 9 (205) - Orbit

View from above orbital plane
View from above orbital plane
View from above satellite
View from above satellite

Ground track
Ground track

The orbit data is extracted from the following two-line orbital elements,

1 40889U 15045A   17139.27454353 -.00000024 +00000-0 +00000-0 0  9995
2 40889 057.0367 312.9151 0003117 035.9006 324.1161 01.70474906010485
Epoch (UTC): 19 May 2017 06:35:20
Eccentricity: 0.0003117
inclination: 57.0367°
perigee height: 23212 km
apogee height: 23231 km
right ascension of ascending node: 312.9151°
argument of perigee: 35.9006°
revolutions per day: 1.70474906
mean anomaly at epoch: 324.1161°
orbit number at epoch: 1048

The dashed part of the orbit path shows where the satellite is in the earth's shadow,  

DLR